Time,TemperatureF,DewpointF,PressureIn,WindDirection,WindDirectionDegrees,WindSpeedMPH,WindSpeedGustMPH,Humidity,HourlyPrecipIn,Conditions,Clouds,dailyrainin,SoftwareType,DateUTC
2013-01-30 00:00:00,32.8,31.8,30.10,South,184,0.0,0.0,96,0.01,,,0.00,WeatherTracker,2013-01-30 05:00:00,
2013-01-30 00:01:00,32.8,31.8,30.10,South,184,0.0,0.0,96,0.01,,,0.00,WeatherTracker,2013-01-30 05:01:00,
2013-01-30 00:06:00,32.9,31.9,30.10,South,184,0.0,0.0,96,0.00,,,0.00,WeatherTracker,2013-01-30 05:06:00,
2013-01-30 00:11:00,32.9,31.9,30.09,South,184,0.0,0.0,96,0.00,,,0.00,WeatherTracker,2013-01-30 05:11:00,
2013-01-30 00:16:00,32.9,31.9,30.09,South,184,0.0,0.0,96,0.01,,,0.01,WeatherTracker,2013-01-30 05:16:00,
2013-01-30 00:21:00,32.9,31.9,30.08,South,184,0.0,0.0,96,0.01,,,0.01,WeatherTracker,2013-01-30 05:21:00,
2013-01-30 00:26:00,32.9,31.9,30.08,South,184,0.0,0.0,96,0.01,,,0.01,WeatherTracker,2013-01-30 05:26:00,
2013-01-30 00:32:00,33.0,32.0,30.08,South,184,0.0,0.0,96,0.01,,,0.01,WeatherTracker,2013-01-30 05:32:00,
2013-01-30 00:37:00,33.0,32.0,30.08,South,184,0.0,0.0,96,0.01,,,0.01,WeatherTracker,2013-01-30 05:37:00,
2013-01-30 00:42:00,33.0,32.0,30.08,South,184,0.0,0.0,96,0.01,,,0.01,WeatherTracker,2013-01-30 05:42:00,
2013-01-30 00:47:00,33.0,32.0,30.07,South,184,0.0,0.0,96,0.01,,,0.01,WeatherTracker,2013-01-30 05:47:00,
2013-01-30 00:52:00,33.1,32.1,30.07,South,184,0.0,0.0,96,0.01,,,0.01,WeatherTracker,2013-01-30 05:52:00,
2013-01-30 00:57:00,33.0,32.0,30.07,South,184,0.0,0.0,96,0.01,,,0.01,WeatherTracker,2013-01-30 05:57:00,
2013-01-30 01:02:00,33.2,32.2,30.07,South,184,0.0,0.0,96,0.02,,,0.02,WeatherTracker,2013-01-30 06:02:00,
2013-01-30 01:07:00,33.2,32.2,30.07,South,184,0.0,0.0,96,0.02,,,0.02,WeatherTracker,2013-01-30 06:07:00,
2013-01-30 01:12:00,33.3,32.3,30.07,South,184,0.0,0.0,96,0.02,,,0.02,WeatherTracker,2013-01-30 06:12:00,
2013-01-30 01:46:00,34.2,33.4,30.06,South,184,0.0,0.0,97,0.01,,,0.02,WeatherTracker,2013-01-30 06:46:00,
2013-01-30 01:52:00,34.3,33.5,30.06,South,184,0.0,0.0,97,0.01,,,0.02,WeatherTracker,2013-01-30 06:52:00,
2013-01-30 01:57:00,34.4,33.6,30.06,South,184,0.0,0.0,97,0.01,,,0.02,WeatherTracker,2013-01-30 06:57:00,
2013-01-30 02:02:00,34.5,33.7,30.06,South,184,0.0,0.0,97,0.00,,,0.02,WeatherTracker,2013-01-30 07:02:00,
2013-01-30 02:07:00,34.5,33.7,30.06,South,184,0.0,0.0,97,0.00,,,0.02,WeatherTracker,2013-01-30 07:07:00,
2013-01-30 02:12:00,34.6,33.8,30.05,South,184,0.0,0.0,97,0.00,,,0.02,WeatherTracker,2013-01-30 07:12:00,
2013-01-30 02:17:00,34.5,33.7,30.05,South,184,0.0,0.0,97,0.00,,,0.02,WeatherTracker,2013-01-30 07:17:00,
2013-01-30 02:22:00,34.5,33.7,30.05,South,184,0.0,0.0,97,0.00,,,0.02,WeatherTracker,2013-01-30 07:22:00,
2013-01-30 02:27:00,34.6,33.8,30.04,South,184,0.0,0.0,97,0.00,,,0.02,WeatherTracker,2013-01-30 07:27:00,
2013-01-30 02:32:00,34.6,33.8,30.04,South,184,0.0,0.0,97,0.01,,,0.03,WeatherTracker,2013-01-30 07:32:00,
2013-01-30 02:37:00,34.7,33.9,30.04,South,184,0.0,0.0,97,0.01,,,0.03,WeatherTracker,2013-01-30 07:37:00,
2013-01-30 02:42:00,34.8,34.0,30.03,South,184,0.0,0.0,97,0.01,,,0.03,WeatherTracker,2013-01-30 07:42:00,
2013-01-30 02:47:00,34.8,34.0,30.02,South,184,0.0,0.0,97,0.01,,,0.03,WeatherTracker,2013-01-30 07:47:00,
2013-01-30 02:52:00,34.8,34.0,30.02,South,184,0.0,0.0,97,0.01,,,0.03,WeatherTracker,2013-01-30 07:52:00,
2013-01-30 02:57:00,34.8,34.0,30.02,South,184,0.0,0.0,97,0.01,,,0.03,WeatherTracker,2013-01-30 07:57:00,
2013-01-30 03:02:00,35.0,34.2,30.01,South,179,0.0,0.0,97,0.01,,,0.03,WeatherTracker,2013-01-30 08:02:00,
2013-01-30 03:07:00,35.0,34.2,30.01,South,179,0.0,0.0,97,0.02,,,0.04,WeatherTracker,2013-01-30 08:07:00,
2013-01-30 03:12:00,35.1,34.3,30.01,SSW,192,0.0,0.0,97,0.02,,,0.04,WeatherTracker,2013-01-30 08:12:00,
2013-01-30 03:17:00,35.2,34.4,30.01,SSW,192,0.0,0.0,97,0.02,,,0.04,WeatherTracker,2013-01-30 08:17:00,
2013-01-30 03:22:00,35.2,34.4,30.00,SSW,192,0.0,0.0,97,0.02,,,0.04,WeatherTracker,2013-01-30 08:22:00,
2013-01-30 03:28:00,35.2,34.4,30.00,SSW,192,0.0,0.0,97,0.02,,,0.04,WeatherTracker,2013-01-30 08:28:00,
2013-01-30 03:33:00,35.2,34.4,30.00,SSW,192,0.0,0.0,97,0.01,,,0.04,WeatherTracker,2013-01-30 08:33:00,
2013-01-30 03:38:00,35.3,34.5,29.99,SSW,192,0.0,0.0,97,0.01,,,0.04,WeatherTracker,2013-01-30 08:38:00,
2013-01-30 03:43:00,35.3,34.5,29.99,South,186,0.0,0.0,97,0.01,,,0.04,WeatherTracker,2013-01-30 08:43:00,
2013-01-30 03:48:00,35.3,34.5,29.99,South,185,0.0,0.0,97,0.01,,,0.04,WeatherTracker,2013-01-30 08:48:00,
2013-01-30 03:53:00,35.4,34.6,29.99,South,185,0.0,0.0,97,0.01,,,0.04,WeatherTracker,2013-01-30 08:53:00,
2013-01-30 03:58:00,35.4,34.6,29.98,South,185,0.0,0.0,97,0.01,,,0.04,WeatherTracker,2013-01-30 08:58:00,
2013-01-30 04:03:00,35.6,34.8,29.98,SSE,154,0.0,0.0,97,0.01,,,0.04,WeatherTracker,2013-01-30 09:03:00,
2013-01-30 04:08:00,35.8,35.0,29.97,SSE,154,0.0,0.0,97,0.00,,,0.04,WeatherTracker,2013-01-30 09:08:00,
2013-01-30 04:13:00,35.9,35.1,29.97,ESE,117,0.0,0.0,97,0.00,,,0.04,WeatherTracker,2013-01-30 09:13:00,
2013-01-30 04:18:00,36.0,35.2,29.97,NNE,13,0.0,0.0,97,0.00,,,0.04,WeatherTracker,2013-01-30 09:18:00,
2013-01-30 04:23:00,36.2,35.4,29.97,SE,125,0.0,0.0,97,0.00,,,0.04,WeatherTracker,2013-01-30 09:23:00,
2013-01-30 04:28:00,36.3,35.5,29.97,East,99,0.0,0.0,97,0.00,,,0.04,WeatherTracker,2013-01-30 09:28:00,
2013-01-30 04:33:00,36.4,35.6,29.97,East,99,0.0,0.0,97,0.00,,,0.04,WeatherTracker,2013-01-30 09:33:00,
2013-01-30 04:38:00,36.5,35.7,29.97,SE,128,1.0,0.0,97,0.00,,,0.04,WeatherTracker,2013-01-30 09:38:00,
2013-01-30 04:43:00,36.6,35.8,29.97,SE,140,1.0,0.0,97,0.00,,,0.04,WeatherTracker,2013-01-30 09:43:00,
2013-01-30 04:48:00,36.7,35.9,29.97,SE,140,0.0,0.0,97,0.00,,,0.04,WeatherTracker,2013-01-30 09:48:00,
2013-01-30 04:53:00,36.7,35.9,29.96,SE,140,0.0,0.0,97,0.00,,,0.04,WeatherTracker,2013-01-30 09:53:00,
2013-01-30 04:59:00,36.8,36.0,29.96,SE,140,0.0,0.0,97,0.00,,,0.04,WeatherTracker,2013-01-30 09:59:00,
2013-01-30 05:04:00,36.9,36.1,29.96,SE,140,0.0,0.0,97,0.00,,,0.04,WeatherTracker,2013-01-30 10:04:00,
2013-01-30 05:09:00,37.0,36.2,29.95,South,184,0.0,0.0,97,0.00,,,0.04,WeatherTracker,2013-01-30 10:09:00,
2013-01-30 05:14:00,37.2,36.4,29.95,South,180,0.0,0.0,97,0.00,,,0.04,WeatherTracker,2013-01-30 10:14:00,
2013-01-30 05:19:00,37.4,36.6,29.95,South,180,2.0,0.0,97,0.00,,,0.04,WeatherTracker,2013-01-30 10:19:00,
2013-01-30 05:24:00,37.5,36.7,29.94,South,174,2.0,0.0,97,0.01,,,0.05,WeatherTracker,2013-01-30 10:24:00,
2013-01-30 05:29:00,37.5,36.7,29.94,SE,128,0.0,0.0,97,0.01,,,0.05,WeatherTracker,2013-01-30 10:29:00,
2013-01-30 05:34:00,37.5,36.7,29.94,SE,138,0.0,0.0,97,0.01,,,0.05,WeatherTracker,2013-01-30 10:34:00,
2013-01-30 05:39:00,37.6,36.8,29.94,ESE,118,4.0,0.0,97,0.01,,,0.05,WeatherTracker,2013-01-30 10:39:00,
2013-01-30 05:44:00,37.7,36.9,29.93,SSE,152,0.0,0.0,97,0.01,,,0.05,WeatherTracker,2013-01-30 10:44:00,
2013-01-30 05:49:00,37.8,37.0,29.93,SSE,159,0.0,0.0,97,0.01,,,0.05,WeatherTracker,2013-01-30 10:49:00,
2013-01-30 05:54:00,37.8,37.0,29.93,SSE,155,1.0,0.0,97,0.01,,,0.05,WeatherTracker,2013-01-30 10:54:00,
2013-01-30 05:59:00,37.9,37.1,29.93,SSE,159,0.0,0.0,97,0.01,,,0.05,WeatherTracker,2013-01-30 10:59:00,
2013-01-30 06:04:00,38.0,37.2,29.94,SSE,166,0.0,0.0,97,0.01,,,0.05,WeatherTracker,2013-01-30 11:04:00,
2013-01-30 06:09:00,38.0,37.2,29.93,SSE,166,1.0,0.0,97,0.01,,,0.05,WeatherTracker,2013-01-30 11:09:00,
2013-01-30 06:14:00,38.3,37.5,29.93,SSE,158,2.0,0.0,97,0.01,,,0.05,WeatherTracker,2013-01-30 11:14:00,
2013-01-30 06:19:00,38.3,37.5,29.93,SW,214,1.0,0.0,97,0.01,,,0.05,WeatherTracker,2013-01-30 11:19:00,
2013-01-30 06:24:00,38.5,37.7,29.93,South,176,0.0,0.0,97,0.00,,,0.05,WeatherTracker,2013-01-30 11:24:00,
2013-01-30 06:29:00,38.7,37.9,29.92,South,174,1.0,0.0,97,0.01,,,0.06,WeatherTracker,2013-01-30 11:29:00,
2013-01-30 06:34:00,38.8,38.0,29.92,South,175,0.0,0.0,97,0.01,,,0.06,WeatherTracker,2013-01-30 11:34:00,
2013-01-30 06:39:00,38.9,38.1,29.92,South,175,0.0,0.0,97,0.01,,,0.06,WeatherTracker,2013-01-30 11:39:00,
2013-01-30 06:44:00,38.9,38.1,29.91,South,175,0.0,0.0,97,0.01,,,0.06,WeatherTracker,2013-01-30 11:44:00,
2013-01-30 06:50:00,39.0,38.2,29.91,South,175,0.0,0.0,97,0.01,,,0.06,WeatherTracker,2013-01-30 11:50:00,
2013-01-30 06:55:00,39.3,38.5,29.91,SSE,163,0.0,0.0,97,0.01,,,0.06,WeatherTracker,2013-01-30 11:55:00,
2013-01-30 07:00:00,39.7,38.9,29.90,South,176,0.0,0.0,97,0.01,,,0.06,WeatherTracker,2013-01-30 12:00:00,
2013-01-30 07:05:00,40.2,39.4,29.90,SE,132,0.0,0.0,97,0.01,,,0.06,WeatherTracker,2013-01-30 12:05:00,
2013-01-30 07:10:00,40.5,39.7,29.89,SSE,152,2.0,0.0,97,0.01,,,0.06,WeatherTracker,2013-01-30 12:10:00,
2013-01-30 07:15:00,40.6,39.8,29.89,SSE,167,0.0,0.0,97,0.01,,,0.06,WeatherTracker,2013-01-30 12:15:00,
2013-01-30 07:20:00,41.1,40.3,29.88,ESE,119,4.0,0.0,97,0.01,,,0.06,WeatherTracker,2013-01-30 12:20:00,
2013-01-30 07:25:00,41.4,40.6,29.88,WSW,243,0.0,0.0,97,0.00,,,0.06,WeatherTracker,2013-01-30 12:25:00,
2013-01-30 07:30:00,41.6,40.8,29.87,South,172,3.0,0.0,97,0.00,,,0.06,WeatherTracker,2013-01-30 12:30:00,
2013-01-30 07:35:00,42.1,41.3,29.87,SW,225,1.0,0.0,97,0.00,,,0.06,WeatherTracker,2013-01-30 12:35:00,
2013-01-30 07:40:00,42.2,41.4,29.87,SE,146,4.0,0.0,97,0.00,,,0.06,WeatherTracker,2013-01-30 12:40:00,
2013-01-30 07:45:00,42.6,41.8,29.86,SSE,163,1.0,0.0,97,0.00,,,0.06,WeatherTracker,2013-01-30 12:45:00,
2013-01-30 07:50:00,43.2,42.4,29.86,South,186,6.0,0.0,97,0.00,,,0.06,WeatherTracker,2013-01-30 12:50:00,
2013-01-30 07:55:00,43.6,42.8,29.86,SSE,148,8.0,0.0,97,0.00,,,0.06,WeatherTracker,2013-01-30 12:55:00,
2013-01-30 08:00:00,43.8,42.7,29.85,South,178,4.0,0.0,96,0.00,,,0.06,WeatherTracker,2013-01-30 13:00:00,
2013-01-30 08:05:00,44.1,43.0,29.85,SSE,150,5.0,0.0,96,0.00,,,0.06,WeatherTracker,2013-01-30 13:05:00,
2013-01-30 08:10:00,44.2,43.1,29.85,South,174,3.0,0.0,96,0.00,,,0.06,WeatherTracker,2013-01-30 13:10:00,
2013-01-30 08:15:00,44.2,43.1,29.85,SSE,160,11.0,0.0,96,0.00,,,0.06,WeatherTracker,2013-01-30 13:15:00,
2013-01-30 08:20:00,44.6,43.5,29.85,SSE,166,5.0,0.0,96,0.00,,,0.06,WeatherTracker,2013-01-30 13:20:00,
2013-01-30 08:25:00,44.9,43.8,29.84,SSE,149,6.0,0.0,96,0.00,,,0.06,WeatherTracker,2013-01-30 13:25:00,
2013-01-30 08:30:00,45.1,44.0,29.84,SSE,168,2.0,0.0,96,0.00,,,0.06,WeatherTracker,2013-01-30 13:30:00,
2013-01-30 08:36:00,45.7,44.6,29.84,SE,140,7.0,0.0,96,0.00,,,0.06,WeatherTracker,2013-01-30 13:36:00,
2013-01-30 08:41:00,46.2,45.4,29.84,WNW,286,1.0,0.0,97,0.00,,,0.06,WeatherTracker,2013-01-30 13:41:00,
2013-01-30 08:46:00,46.7,45.9,29.83,SSE,160,6.0,0.0,97,0.00,,,0.06,WeatherTracker,2013-01-30 13:46:00,
2013-01-30 08:51:00,47.0,46.2,29.83,SSE,165,8.0,0.0,97,0.00,,,0.06,WeatherTracker,2013-01-30 13:51:00,
2013-01-30 08:56:00,47.3,46.2,29.83,SSE,165,6.0,0.0,96,0.00,,,0.06,WeatherTracker,2013-01-30 13:56:00,
2013-01-30 09:01:00,47.4,46.3,29.82,SE,146,6.0,0.0,96,0.00,,,0.06,WeatherTracker,2013-01-30 14:01:00,
2013-01-30 09:06:00,47.4,46.3,29.82,South,181,7.0,0.0,96,0.00,,,0.06,WeatherTracker,2013-01-30 14:06:00,
2013-01-30 09:11:00,47.3,46.2,29.82,SSE,158,7.0,0.0,96,0.00,,,0.06,WeatherTracker,2013-01-30 14:11:00,
2013-01-30 09:16:00,47.4,46.3,29.82,South,170,6.0,0.0,96,0.00,,,0.06,WeatherTracker,2013-01-30 14:16:00,
2013-01-30 09:21:00,47.7,46.6,29.81,SSE,157,6.0,0.0,96,0.00,,,0.06,WeatherTracker,2013-01-30 14:21:00,
2013-01-30 09:26:00,48.0,46.9,29.81,SSE,149,7.0,0.0,96,0.00,,,0.06,WeatherTracker,2013-01-30 14:26:00,
2013-01-30 09:31:00,48.3,47.2,29.81,SE,142,5.0,0.0,96,0.00,,,0.06,WeatherTracker,2013-01-30 14:31:00,
2013-01-30 09:36:00,48.5,47.4,29.81,SSE,163,0.0,0.0,96,0.00,,,0.06,WeatherTracker,2013-01-30 14:36:00,
2013-01-30 09:41:00,48.7,47.6,29.81,SSE,153,1.0,0.0,96,0.00,,,0.06,WeatherTracker,2013-01-30 14:41:00,
2013-01-30 09:46:00,49.1,48.0,29.81,SSE,156,3.0,0.0,96,0.00,,,0.06,WeatherTracker,2013-01-30 14:46:00,
2013-01-30 09:51:00,49.5,48.7,29.81,SSE,153,3.0,0.0,97,0.00,,,0.06,WeatherTracker,2013-01-30 14:51:00,
2013-01-30 09:56:00,49.9,48.8,29.80,SE,131,2.0,0.0,96,0.00,,,0.06,WeatherTracker,2013-01-30 14:56:00,
2013-01-30 10:01:00,50.2,49.1,29.79,SE,131,4.0,0.0,96,0.00,,,0.06,WeatherTracker,2013-01-30 15:01:00,
2013-01-30 10:06:00,50.7,49.9,29.80,SSE,162,3.0,0.0,97,0.00,,,0.06,WeatherTracker,2013-01-30 15:06:00,
2013-01-30 10:11:00,51.2,50.1,29.80,SE,146,6.0,0.0,96,0.00,,,0.06,WeatherTracker,2013-01-30 15:11:00,
2013-01-30 10:16:00,51.6,50.5,29.78,South,170,3.0,0.0,96,0.00,,,0.06,WeatherTracker,2013-01-30 15:16:00,
2013-01-30 10:21:00,52.0,50.9,29.78,South,170,3.0,0.0,96,0.00,,,0.06,WeatherTracker,2013-01-30 15:21:00,
2013-01-30 10:26:00,52.3,51.2,29.78,SSE,163,1.0,0.0,96,0.00,,,0.06,WeatherTracker,2013-01-30 15:26:00,
2013-01-30 10:32:00,52.6,51.2,29.78,SSE,161,5.0,0.0,95,0.00,,,0.06,WeatherTracker,2013-01-30 15:32:00,
2013-01-30 10:37:00,52.9,51.5,29.77,SSW,207,5.0,0.0,95,0.00,,,0.06,WeatherTracker,2013-01-30 15:37:00,
2013-01-30 10:42:00,53.2,51.8,29.78,South,169,8.0,0.0,95,0.00,,,0.06,WeatherTracker,2013-01-30 15:42:00,
2013-01-30 10:47:00,53.3,51.6,29.77,SE,137,2.0,0.0,94,0.00,,,0.06,WeatherTracker,2013-01-30 15:47:00,
2013-01-30 10:52:00,53.5,51.8,29.77,SE,134,9.0,0.0,94,0.00,,,0.06,WeatherTracker,2013-01-30 15:52:00,
2013-01-30 10:57:00,53.7,52.0,29.76,ESE,109,1.0,0.0,94,0.00,,,0.06,WeatherTracker,2013-01-30 15:57:00,
2013-01-30 11:02:00,53.8,52.1,29.76,SSE,152,4.0,0.0,94,0.00,,,0.06,WeatherTracker,2013-01-30 16:02:00,
2013-01-30 11:07:00,53.9,52.2,29.75,SSE,148,8.0,0.0,94,0.00,,,0.06,WeatherTracker,2013-01-30 16:07:00,
2013-01-30 11:12:00,53.9,52.2,29.75,South,190,4.0,0.0,94,0.00,,,0.06,WeatherTracker,2013-01-30 16:12:00,
2013-01-30 11:17:00,54.0,52.3,29.75,ESE,115,7.0,0.0,94,0.00,,,0.06,WeatherTracker,2013-01-30 16:17:00,
2013-01-30 11:22:00,54.0,52.3,29.74,South,173,11.0,0.0,94,0.00,,,0.06,WeatherTracker,2013-01-30 16:22:00,
2013-01-30 11:27:00,54.1,52.4,29.73,SSW,194,1.0,0.0,94,0.00,,,0.06,WeatherTracker,2013-01-30 16:27:00,
2013-01-30 11:32:00,54.2,52.5,29.72,SSE,157,7.0,0.0,94,0.00,,,0.06,WeatherTracker,2013-01-30 16:32:00,
2013-01-30 11:37:00,54.3,52.6,29.71,South,173,5.0,0.0,94,0.00,,,0.06,WeatherTracker,2013-01-30 16:37:00,
2013-01-30 11:42:00,54.5,52.8,29.71,SSE,153,6.0,0.0,94,0.00,,,0.06,WeatherTracker,2013-01-30 16:42:00,
2013-01-30 11:47:00,54.6,52.9,29.71,SSW,202,0.0,0.0,94,0.00,,,0.06,WeatherTracker,2013-01-30 16:47:00,
2013-01-30 11:52:00,54.7,53.0,29.70,SSE,148,10.0,0.0,94,0.00,,,0.06,WeatherTracker,2013-01-30 16:52:00,
2013-01-30 11:57:00,54.8,53.1,29.70,South,181,3.0,0.0,94,0.00,,,0.06,WeatherTracker,2013-01-30 16:57:00,
2013-01-30 12:02:00,54.8,52.8,29.70,South,171,2.0,0.0,93,0.00,,,0.06,WeatherTracker,2013-01-30 17:02:00,
2013-01-30 12:07:00,54.7,52.7,29.69,SSE,157,2.0,0.0,93,0.00,,,0.06,WeatherTracker,2013-01-30 17:07:00,
2013-01-30 12:12:00,54.6,52.9,29.69,SW,236,1.0,0.0,94,0.00,,,0.06,WeatherTracker,2013-01-30 17:12:00,
2013-01-30 12:17:00,54.6,52.9,29.69,SSE,147,2.0,0.0,94,0.00,,,0.06,WeatherTracker,2013-01-30 17:17:00,
2013-01-30 12:22:00,54.7,53.0,29.68,SE,144,5.0,0.0,94,0.00,,,0.06,WeatherTracker,2013-01-30 17:22:00,
2013-01-30 12:27:00,54.8,53.1,29.67,SSE,157,4.0,0.0,94,0.00,,,0.06,WeatherTracker,2013-01-30 17:27:00,
2013-01-30 12:32:00,54.8,53.1,29.67,SSE,162,2.0,0.0,94,0.00,,,0.06,WeatherTracker,2013-01-30 17:32:00,
2013-01-30 12:37:00,54.9,53.2,29.67,SE,144,8.0,0.0,94,0.00,,,0.06,WeatherTracker,2013-01-30 17:37:00,
2013-01-30 12:42:00,55.0,53.0,29.66,South,169,0.0,0.0,93,0.00,,,0.06,WeatherTracker,2013-01-30 17:42:00,
2013-01-30 12:48:00,55.1,53.1,29.66,SSE,148,5.0,0.0,93,0.00,,,0.06,WeatherTracker,2013-01-30 17:48:00,
2013-01-30 12:53:00,55.3,53.3,29.66,SE,144,2.0,0.0,93,0.00,,,0.06,WeatherTracker,2013-01-30 17:53:00,
2013-01-30 12:58:00,55.4,53.4,29.66,South,175,6.0,0.0,93,0.00,,,0.06,WeatherTracker,2013-01-30 17:58:00,
2013-01-30 13:03:00,55.5,53.5,29.65,SE,124,6.0,0.0,93,0.00,,,0.06,WeatherTracker,2013-01-30 18:03:00,
2013-01-30 13:08:00,55.5,53.5,29.65,SSE,160,5.0,0.0,93,0.00,,,0.06,WeatherTracker,2013-01-30 18:08:00,
2013-01-30 13:13:00,55.6,53.6,29.64,SSE,158,3.0,0.0,93,0.00,,,0.06,WeatherTracker,2013-01-30 18:13:00,
2013-01-30 13:18:00,55.7,53.7,29.63,SSE,161,4.0,0.0,93,0.00,,,0.06,WeatherTracker,2013-01-30 18:18:00,
2013-01-30 13:23:00,55.8,53.8,29.63,SSE,158,2.0,0.0,93,0.00,,,0.06,WeatherTracker,2013-01-30 18:23:00,
2013-01-30 13:28:00,56.0,53.7,29.62,SE,136,6.0,0.0,92,0.00,,,0.06,WeatherTracker,2013-01-30 18:28:00,
2013-01-30 13:33:00,56.2,53.9,29.62,SSE,148,1.0,0.0,92,0.00,,,0.06,WeatherTracker,2013-01-30 18:33:00,
2013-01-30 13:38:00,56.4,54.1,29.62,SSE,164,11.0,0.0,92,0.00,,,0.06,WeatherTracker,2013-01-30 18:38:00,
2013-01-30 13:43:00,56.6,54.0,29.62,SE,136,7.0,0.0,91,0.00,,,0.06,WeatherTracker,2013-01-30 18:43:00,
2013-01-30 13:48:00,56.8,54.2,29.61,SSE,160,5.0,0.0,91,0.00,,,0.06,WeatherTracker,2013-01-30 18:48:00,
2013-01-30 13:53:00,57.0,54.4,29.61,South,175,1.0,0.0,91,0.00,,,0.06,WeatherTracker,2013-01-30 18:53:00,
2013-01-30 13:58:00,57.1,54.2,29.61,NE,56,2.0,0.0,90,0.00,,,0.06,WeatherTracker,2013-01-30 18:58:00,
2013-01-30 14:03:00,57.4,54.5,29.61,SSE,155,4.0,0.0,90,0.00,,,0.06,WeatherTracker,2013-01-30 19:03:00,
2013-01-30 14:08:00,57.5,54.6,29.60,South,178,3.0,0.0,90,0.00,,,0.06,WeatherTracker,2013-01-30 19:08:00,
2013-01-30 14:13:00,57.6,54.7,29.60,SSE,150,2.0,0.0,90,0.00,,,0.06,WeatherTracker,2013-01-30 19:13:00,
2013-01-30 14:18:00,57.7,54.8,29.59,SSE,161,2.0,0.0,90,0.00,,,0.06,WeatherTracker,2013-01-30 19:18:00,
2013-01-30 14:23:00,57.9,55.0,29.59,ESE,121,10.0,0.0,90,0.00,,,0.06,WeatherTracker,2013-01-30 19:23:00,
2013-01-30 14:28:00,58.3,55.1,29.58,SSW,199,3.0,0.0,89,0.00,,,0.06,WeatherTracker,2013-01-30 19:28:00,
2013-01-30 14:33:00,58.6,55.4,29.59,SSE,161,5.0,0.0,89,0.01,,,0.07,WeatherTracker,2013-01-30 19:33:00,
2013-01-30 14:38:00,58.8,55.6,29.59,SSE,148,7.0,0.0,89,0.01,,,0.07,WeatherTracker,2013-01-30 19:38:00,
2013-01-30 14:44:00,59.1,55.9,29.59,West,263,1.0,0.0,89,0.01,,,0.07,WeatherTracker,2013-01-30 19:44:00,
2013-01-30 14:49:00,59.4,55.8,29.58,South,182,4.0,0.0,88,0.01,,,0.07,WeatherTracker,2013-01-30 19:49:00,
2013-01-30 14:54:00,59.5,55.9,29.58,SSE,148,7.0,0.0,88,0.01,,,0.07,WeatherTracker,2013-01-30 19:54:00,
2013-01-30 14:59:00,59.9,56.0,29.58,WSW,242,3.0,0.0,87,0.01,,,0.07,WeatherTracker,2013-01-30 19:59:00,
2013-01-30 15:04:00,60.0,55.8,29.58,ESE,114,0.0,0.0,86,0.01,,,0.07,WeatherTracker,2013-01-30 20:04:00,
2013-01-30 15:09:00,60.2,56.0,29.58,SSE,154,7.0,0.0,86,0.01,,,0.07,WeatherTracker,2013-01-30 20:09:00,
2013-01-30 15:14:00,60.3,56.1,29.57,SSW,206,5.0,0.0,86,0.01,,,0.07,WeatherTracker,2013-01-30 20:14:00,
2013-01-30 15:19:00,60.3,55.8,29.57,West,281,5.0,0.0,85,0.01,,,0.07,WeatherTracker,2013-01-30 20:19:00,
2013-01-30 15:24:00,60.3,55.8,29.58,SSE,158,5.0,0.0,85,0.01,,,0.07,WeatherTracker,2013-01-30 20:24:00,
2013-01-30 15:29:00,60.2,55.7,29.58,SE,131,9.0,0.0,85,0.01,,,0.07,WeatherTracker,2013-01-30 20:29:00,
2013-01-30 15:34:00,60.1,55.9,29.57,South,175,13.0,0.0,86,0.00,,,0.07,WeatherTracker,2013-01-30 20:34:00,
2013-01-30 15:39:00,60.0,55.8,29.58,ESE,116,0.0,0.0,86,0.00,,,0.07,WeatherTracker,2013-01-30 20:39:00,
2013-01-30 15:44:00,59.9,55.7,29.57,ESE,122,8.0,0.0,86,0.00,,,0.07,WeatherTracker,2013-01-30 20:44:00,
2013-01-30 15:49:00,59.9,55.7,29.57,South,189,4.0,0.0,86,0.00,,,0.07,WeatherTracker,2013-01-30 20:49:00,
2013-01-30 15:54:00,59.9,56.0,29.56,SE,128,5.0,0.0,87,0.00,,,0.07,WeatherTracker,2013-01-30 20:54:00,
2013-01-30 15:59:00,59.9,56.0,29.57,South,173,9.0,0.0,87,0.00,,,0.07,WeatherTracker,2013-01-30 20:59:00,
2013-01-30 16:04:00,59.9,56.0,29.57,SSE,164,6.0,0.0,87,0.00,,,0.07,WeatherTracker,2013-01-30 21:04:00,
2013-01-30 16:09:00,60.0,56.1,29.56,SSE,150,12.0,0.0,87,0.00,,,0.07,WeatherTracker,2013-01-30 21:09:00,
2013-01-30 16:14:00,59.9,56.0,29.56,SE,146,3.0,0.0,87,0.00,,,0.07,WeatherTracker,2013-01-30 21:14:00,
2013-01-30 16:19:00,59.8,55.9,29.56,SSE,167,9.0,0.0,87,0.00,,,0.07,WeatherTracker,2013-01-30 21:19:00,
2013-01-30 16:24:00,59.9,56.0,29.57,ESE,117,2.0,0.0,87,0.00,,,0.07,WeatherTracker,2013-01-30 21:24:00,
2013-01-30 16:30:00,59.8,55.9,29.57,SSE,150,3.0,0.0,87,0.00,,,0.07,WeatherTracker,2013-01-30 21:30:00,
2013-01-30 16:35:00,59.6,55.7,29.57,South,172,10.0,0.0,87,0.00,,,0.07,WeatherTracker,2013-01-30 21:35:00,
2013-01-30 16:40:00,59.8,55.9,29.57,SW,232,1.0,0.0,87,0.00,,,0.07,WeatherTracker,2013-01-30 21:40:00,
2013-01-30 16:45:00,59.7,55.8,29.57,SSE,163,4.0,0.0,87,0.00,,,0.07,WeatherTracker,2013-01-30 21:45:00,
2013-01-30 16:50:00,59.6,55.7,29.57,SE,139,3.0,0.0,87,0.00,,,0.07,WeatherTracker,2013-01-30 21:50:00,
2013-01-30 16:55:00,59.6,55.7,29.57,SE,138,5.0,0.0,87,0.00,,,0.07,WeatherTracker,2013-01-30 21:55:00,
2013-01-30 17:00:00,59.4,55.5,29.57,South,178,13.0,0.0,87,0.00,,,0.07,WeatherTracker,2013-01-30 22:00:00,
2013-01-30 17:05:00,59.4,55.5,29.57,SSE,162,9.0,0.0,87,0.00,,,0.07,WeatherTracker,2013-01-30 22:05:00,
2013-01-30 17:10:00,59.5,55.9,29.57,SE,145,6.0,0.0,88,0.00,,,0.07,WeatherTracker,2013-01-30 22:10:00,
2013-01-30 17:15:00,59.5,55.6,29.57,WNW,303,2.0,0.0,87,0.00,,,0.07,WeatherTracker,2013-01-30 22:15:00,
2013-01-30 17:20:00,59.5,55.9,29.56,South,178,4.0,0.0,88,0.00,,,0.07,WeatherTracker,2013-01-30 22:20:00,
2013-01-30 17:25:00,59.6,56.0,29.57,West,269,4.0,0.0,88,0.00,,,0.07,WeatherTracker,2013-01-30 22:25:00,
2013-01-30 17:30:00,59.6,56.0,29.57,SSE,149,4.0,0.0,88,0.00,,,0.07,WeatherTracker,2013-01-30 22:30:00,
2013-01-30 17:35:00,59.7,56.1,29.57,SSE,167,8.0,0.0,88,0.00,,,0.07,WeatherTracker,2013-01-30 22:35:00,
2013-01-30 17:40:00,59.7,56.1,29.57,SSE,167,8.0,0.0,88,0.00,,,0.07,WeatherTracker,2013-01-30 22:40:00,
2013-01-30 17:45:00,59.9,56.3,29.56,SSE,155,4.0,0.0,88,0.00,,,0.07,WeatherTracker,2013-01-30 22:45:00,
2013-01-30 17:50:00,59.9,56.3,29.55,SSE,163,5.0,0.0,88,0.00,,,0.07,WeatherTracker,2013-01-30 22:50:00,
2013-01-30 17:56:00,59.9,56.0,29.55,WSW,250,2.0,0.0,87,0.00,,,0.07,WeatherTracker,2013-01-30 22:56:00,
2013-01-30 18:00:00,59.8,55.9,29.55,South,174,9.0,0.0,87,0.00,,,0.07,WeatherTracker,2013-01-30 23:00:00,
2013-01-30 18:06:00,59.8,55.9,29.55,SE,146,5.0,0.0,87,0.00,,,0.07,WeatherTracker,2013-01-30 23:06:00,
2013-01-30 18:11:00,59.9,56.3,29.55,SE,142,4.0,0.0,88,0.00,,,0.07,WeatherTracker,2013-01-30 23:11:00,
2013-01-30 18:16:00,60.0,56.4,29.55,SSE,160,3.0,0.0,88,0.00,,,0.07,WeatherTracker,2013-01-30 23:16:00,
2013-01-30 18:21:00,60.0,56.4,29.54,SSE,154,6.0,0.0,88,0.00,,,0.07,WeatherTracker,2013-01-30 23:21:00,
2013-01-30 18:26:00,60.0,56.4,29.54,SSE,159,5.0,0.0,88,0.00,,,0.07,WeatherTracker,2013-01-30 23:26:00,
2013-01-30 18:31:00,60.1,56.5,29.54,SSW,199,6.0,0.0,88,0.00,,,0.07,WeatherTracker,2013-01-30 23:31:00,
2013-01-30 18:36:00,60.2,56.3,29.54,SSE,159,5.0,0.0,87,0.00,,,0.07,WeatherTracker,2013-01-30 23:36:00,
2013-01-30 18:41:00,60.3,56.4,29.54,SSE,154,7.0,0.0,87,0.00,,,0.07,WeatherTracker,2013-01-30 23:41:00,
2013-01-30 18:46:00,60.4,56.5,29.54,SSE,151,5.0,0.0,87,0.00,,,0.07,WeatherTracker,2013-01-30 23:46:00,
2013-01-30 18:51:00,60.4,56.5,29.54,SW,236,3.0,0.0,87,0.00,,,0.07,WeatherTracker,2013-01-30 23:51:00,
2013-01-30 18:56:00,60.3,56.4,29.54,West,279,4.0,0.0,87,0.00,,,0.07,WeatherTracker,2013-01-30 23:56:00,
2013-01-30 19:01:00,60.4,56.5,29.53,SSE,161,4.0,0.0,87,0.00,,,0.07,WeatherTracker,2013-01-31 00:01:00,
2013-01-30 19:06:00,60.7,56.8,29.53,NW,306,4.0,0.0,87,0.00,,,0.07,WeatherTracker,2013-01-31 00:06:00,
2013-01-30 19:11:00,60.8,56.6,29.53,South,179,5.0,0.0,86,0.00,,,0.07,WeatherTracker,2013-01-31 00:11:00,
2013-01-30 19:16:00,60.9,56.7,29.53,SSE,150,8.0,0.0,86,0.00,,,0.07,WeatherTracker,2013-01-31 00:16:00,
2013-01-30 19:21:00,60.9,56.7,29.53,South,169,7.0,0.0,86,0.00,,,0.07,WeatherTracker,2013-01-31 00:21:00,
2013-01-30 19:26:00,60.6,56.7,29.53,SSE,163,12.0,0.0,87,0.00,,,0.07,WeatherTracker,2013-01-31 00:26:00,
2013-01-30 19:31:00,60.3,56.7,29.53,SSE,166,4.0,0.0,88,0.00,,,0.07,WeatherTracker,2013-01-31 00:31:00,
2013-01-30 19:36:00,60.2,56.9,29.53,SSE,149,8.0,0.0,89,0.00,,,0.07,WeatherTracker,2013-01-31 00:36:00,
2013-01-30 19:41:00,60.1,56.8,29.52,South,183,6.0,0.0,89,0.00,,,0.07,WeatherTracker,2013-01-31 00:41:00,
2013-01-30 19:46:00,59.8,56.9,29.52,South,170,4.0,0.0,90,0.01,,,0.08,WeatherTracker,2013-01-31 00:46:00,
2013-01-30 19:51:00,59.5,56.9,29.52,SSW,196,7.0,0.0,91,0.01,,,0.08,WeatherTracker,2013-01-31 00:51:00,
2013-01-30 19:56:00,59.4,56.8,29.52,SSE,151,16.0,0.0,91,0.01,,,0.08,WeatherTracker,2013-01-31 00:56:00,
2013-01-30 20:01:00,59.4,57.1,29.52,SSE,154,9.0,0.0,92,0.01,,,0.08,WeatherTracker,2013-01-31 01:01:00,
2013-01-30 20:07:00,59.3,57.0,29.52,South,174,2.0,0.0,92,0.01,,,0.08,WeatherTracker,2013-01-31 01:07:00,
2013-01-30 20:12:00,59.4,57.1,29.51,South,183,10.0,0.0,92,0.01,,,0.08,WeatherTracker,2013-01-31 01:12:00,
2013-01-30 20:17:00,59.3,57.0,29.51,SSE,154,6.0,0.0,92,0.01,,,0.08,WeatherTracker,2013-01-31 01:17:00,
2013-01-30 20:22:00,59.4,57.1,29.51,East,96,3.0,0.0,92,0.02,,,0.09,WeatherTracker,2013-01-31 01:22:00,
2013-01-30 20:27:00,59.5,57.2,29.51,South,173,9.0,0.0,92,0.02,,,0.09,WeatherTracker,2013-01-31 01:27:00,
2013-01-30 20:32:00,59.5,57.2,29.51,SE,128,1.0,0.0,92,0.02,,,0.09,WeatherTracker,2013-01-31 01:32:00,
2013-01-30 20:37:00,59.4,57.1,29.51,SE,127,4.0,0.0,92,0.02,,,0.09,WeatherTracker,2013-01-31 01:37:00,
2013-01-30 20:42:00,59.5,57.2,29.51,SSE,166,10.0,0.0,92,0.02,,,0.09,WeatherTracker,2013-01-31 01:42:00,
2013-01-30 20:47:00,59.5,57.2,29.50,South,170,8.0,0.0,92,0.01,,,0.09,WeatherTracker,2013-01-31 01:47:00,
2013-01-30 20:52:00,59.6,57.3,29.51,SE,134,7.0,0.0,92,0.02,,,0.10,WeatherTracker,2013-01-31 01:52:00,
2013-01-30 20:57:00,59.6,57.3,29.51,SSW,192,6.0,0.0,92,0.02,,,0.10,WeatherTracker,2013-01-31 01:57:00,
2013-01-30 21:02:00,59.5,57.2,29.50,WNW,284,6.0,0.0,92,0.02,,,0.10,WeatherTracker,2013-01-31 02:02:00,
2013-01-30 21:07:00,59.3,57.0,29.50,WSW,249,19.0,0.0,92,0.02,,,0.10,WeatherTracker,2013-01-31 02:07:00,
2013-01-30 21:12:00,59.3,57.3,29.50,SE,146,6.0,0.0,93,0.02,,,0.10,WeatherTracker,2013-01-31 02:12:00,
2013-01-30 21:17:00,59.3,57.3,29.50,SSE,168,4.0,0.0,93,0.02,,,0.10,WeatherTracker,2013-01-31 02:17:00,
2013-01-30 21:22:00,59.2,57.2,29.50,SSE,156,6.0,0.0,93,0.01,,,0.10,WeatherTracker,2013-01-31 02:22:00,
2013-01-30 21:27:00,59.1,57.1,29.50,SSE,164,2.0,0.0,93,0.01,,,0.10,WeatherTracker,2013-01-31 02:27:00,
2013-01-30 21:32:00,59.0,57.0,29.49,SSE,149,14.0,0.0,93,0.01,,,0.10,WeatherTracker,2013-01-31 02:32:00,
2013-01-30 21:37:00,59.0,57.0,29.48,SE,144,6.0,0.0,93,0.01,,,0.10,WeatherTracker,2013-01-31 02:37:00,
2013-01-30 21:42:00,58.9,56.9,29.48,South,171,0.0,0.0,93,0.01,,,0.10,WeatherTracker,2013-01-31 02:42:00,
2013-01-30 21:47:00,58.9,56.9,29.48,SE,138,4.0,0.0,93,0.01,,,0.10,WeatherTracker,2013-01-31 02:47:00,
2013-01-30 21:52:00,58.9,56.9,29.48,South,174,0.0,0.0,93,0.00,,,0.10,WeatherTracker,2013-01-31 02:52:00,
2013-01-30 21:58:00,58.8,56.8,29.48,SSE,153,6.0,0.0,93,0.00,,,0.10,WeatherTracker,2013-01-31 02:58:00,
2013-01-30 22:03:00,58.6,56.6,29.48,WSW,243,11.0,0.0,93,0.00,,,0.10,WeatherTracker,2013-01-31 03:03:00,
2013-01-30 22:08:00,58.6,56.6,29.48,SSE,155,3.0,0.0,93,0.00,,,0.10,WeatherTracker,2013-01-31 03:08:00,
2013-01-30 22:13:00,58.5,56.5,29.47,SSE,154,10.0,0.0,93,0.00,,,0.10,WeatherTracker,2013-01-31 03:13:00,
2013-01-30 22:18:00,58.5,56.5,29.47,South,170,4.0,0.0,93,0.00,,,0.10,WeatherTracker,2013-01-31 03:18:00,
2013-01-30 22:23:00,58.3,56.3,29.47,SW,224,1.0,0.0,93,0.00,,,0.10,WeatherTracker,2013-01-31 03:23:00,
2013-01-30 22:28:00,58.2,56.2,29.48,South,175,2.0,0.0,93,0.00,,,0.10,WeatherTracker,2013-01-31 03:28:00,
2013-01-30 22:33:00,58.1,56.4,29.47,SSE,159,4.0,0.0,94,0.00,,,0.10,WeatherTracker,2013-01-31 03:33:00,
2013-01-30 22:38:00,58.1,56.1,29.47,South,177,5.0,0.0,93,0.00,,,0.10,WeatherTracker,2013-01-31 03:38:00,
2013-01-30 22:43:00,58.0,56.3,29.46,SSE,165,7.0,0.0,94,0.00,,,0.10,WeatherTracker,2013-01-31 03:43:00,
2013-01-30 22:48:00,57.9,56.2,29.46,East,95,3.0,0.0,94,0.00,,,0.10,WeatherTracker,2013-01-31 03:48:00,
2013-01-30 22:53:00,57.9,56.2,29.45,SSE,166,4.0,0.0,94,0.00,,,0.10,WeatherTracker,2013-01-31 03:53:00,
2013-01-30 22:58:00,57.8,56.1,29.46,SE,141,12.0,0.0,94,0.00,,,0.10,WeatherTracker,2013-01-31 03:58:00,
2013-01-30 23:03:00,58.0,56.3,29.45,SSE,150,5.0,0.0,94,0.00,,,0.10,WeatherTracker,2013-01-31 04:03:00,
2013-01-30 23:08:00,57.9,56.2,29.45,WNW,286,2.0,0.0,94,0.00,,,0.10,WeatherTracker,2013-01-31 04:08:00,
2013-01-30 23:13:00,58.0,56.3,29.45,ENE,78,2.0,0.0,94,0.00,,,0.10,WeatherTracker,2013-01-31 04:13:00,
2013-01-30 23:18:00,58.1,56.1,29.44,SSE,162,6.0,0.0,93,0.00,,,0.10,WeatherTracker,2013-01-31 04:18:00,
2013-01-30 23:23:00,58.2,56.2,29.43,SSE,163,8.0,0.0,93,0.00,,,0.10,WeatherTracker,2013-01-31 04:23:00,
2013-01-30 23:28:00,58.2,56.2,29.43,ESE,114,11.0,0.0,93,0.00,,,0.10,WeatherTracker,2013-01-31 04:28:00,
2013-01-30 23:33:00,58.3,56.3,29.42,SSE,163,6.0,0.0,93,0.00,,,0.10,WeatherTracker,2013-01-31 04:33:00,
2013-01-30 23:38:00,58.2,55.9,29.42,WNW,288,4.0,0.0,92,0.00,,,0.10,WeatherTracker,2013-01-31 04:38:00,
2013-01-30 23:43:00,58.6,56.3,29.43,South,176,10.0,0.0,92,0.00,,,0.10,WeatherTracker,2013-01-31 04:43:00,
2013-01-30 23:48:00,59.0,56.4,29.43,SSE,153,9.0,0.0,91,0.00,,,0.10,WeatherTracker,2013-01-31 04:48:00,
2013-01-30 23:53:00,59.2,56.3,29.42,South,171,6.0,0.0,90,0.00,,,0.10,WeatherTracker,2013-01-31 04:53:00,
2013-01-30 23:58:00,59.3,56.4,29.41,SE,145,8.0,0.0,90,0.00,,,0.10,WeatherTracker,2013-01-31 04:58:00,